Weather Roundup
Issued by NWS

Home | Current Version | Previous Version | Graphics & Text | Print | Product List | Glossary Off
Versions: 1 2 3 4 5 6 7 8 9 10 11 12 13 14 15 16 17 18 19 20 21 22 23 24 25 26 27 28 29 30 31 32 33 34 35 36 37 38 39 40 41 42 43 44 45 46 47 48 49 50

000
NZUS93 KARX 230959
HRRWXR

CURRENT HOURLY OBSERVATIONS ACROSS
MUCH OF THE UPPER MISSISSIPPI VALLEY
NATIONAL WEATHER SERVICE LA CROSSE WI
500 AM CDT WED JUL 23 2014


...SOUTHEAST MINNESOTA...


CITY           SKY/WX    TMP DP  RH WIND       PRES   REMARKS
ROCHESTER      PTCLDY    60  56  86 NW6       30.23R
ROCHESTER/MAYO PTSUNNY   63  56  80 CALM      30.22R
WINONA         CLEAR     63  61  94 NW3       30.19R
AUSTIN         CLEAR     59  55  88 CALM      30.21R
ALBERT LEA     CLEAR     59  55  88 CALM      30.21R
DODGE CENTER   CLEAR     61  55  82 N6        30.22R
PRESTON        PTCLDY    60  61 100 N3        30.21R
OWATONNA       CLEAR     55  54  94 CALM      30.22R
FARIBAULT      CLEAR     59  54  82 CALM      30.22R
$$

...ELSEWHERE IN MINNESOTA...


CITY           SKY/WX    TMP DP  RH WIND       PRES   REMARKS
MINNEAPOLIS    PTCLDY    64  57  78 CALM      30.21R
INTNL FALLS    CLOUDY    57  55  93 NW3       30.25R
DULUTH         PTCLDY    59  52  77 N5        30.21R
RED WING       PTCLDY    61  57  88 CALM      30.20R
REDWOOD FALLS  CLEAR     61  55  81 N7        30.23R
MANKATO        CLEAR     59  52  77 N3        30.21S
WORTHINGTON    PTCLDY    55  54  94 NW6       30.25S
FAIRMONT       CLEAR     57  52  82 N6        30.22S
$$

...SOUTHWEST WISCONSIN...


CITY           SKY/WX    TMP DP  RH WIND       PRES   REMARKS
LA CROSSE      CLEAR     62  58  86 N3        30.17R
PRAIRIE DU CHI CLEAR     66  56  71 N3        30.15R
BOSCOBEL       CLEAR     60  57  89 E3        30.16R
LONE ROCK      NOT AVBL
PLATTEVILLE    CLEAR     62  59  91 NE6       30.15R
FORT MC COY    CLEAR     55  54  96 CALM      30.18S
CAMP DOUGLAS   FOG       52  52 100 W5        30.17S VSB 1/4
VIROQUA        FAIR      60  58  94 NE3       30.18R
WIS DELLS      PTCLDY    62  56  82 CALM      30.17R
$$

...ELSEWHERE IN WISCONSIN...


CITY           SKY/WX    TMP DP  RH WIND       PRES   REMARKS
MILWAUKEE      CLEAR     61  55  81 N17       30.10F
MADISON        CLEAR     61  56  83 N7        30.15R
GREEN BAY      CLEAR     58  56  93 N7        30.14R
EAU CLAIRE     CLEAR     57  55  94 CALM      30.19R FOG
BLACK RVR FLS  FAIR      50  50 100 CALM      30.18R
MEDFORD        FOG       52  51  99 CALM      30.18S VSB 1/4
WAUSAU         CLEAR     57  56  96 CALM      30.17R
WIS RAPIDS     CLEAR     58  56  93 CALM      30.19R
MARSHFIELD     CLEAR     58  56  93 CALM      30.18R
RICE LAKE        N/A     56  54  95 CALM      30.21S FOG
$$

...NORTHEAST IOWA...


CITY           SKY/WX    TMP DP  RH WIND       PRES   REMARKS
WATERLOO       CLEAR     62  60  93 N6        30.15S
DUBUQUE        CLEAR     65  60  84 NE8       30.15R
DECORAH        CLOUDY    63  61  94 CALM      30.18R
MASON CITY     CLEAR     56  55  97 N6        30.21R
CHARLES CITY   NOT AVBL
OELWEIN        CLEAR     63  61  94 N6        30.17R
$$

...ELSEWHERE IN IOWA...


CITY           SKY/WX    TMP DP  RH WIND       PRES   REMARKS
DES MOINES     PTCLDY    69  59  70 N9        30.15S
IOWA CITY      CLEAR     70  64  81 N9        30.13R
FORT DODGE     CLEAR     61  55  82 N5        30.20S
MARSHALLTOWN   CLEAR     62  60  93 N7        30.15S
CEDAR RAPIDS   CLEAR     67  63  87 N8        30.13R
$$

...NORTHERN ILLINOIS...


CITY           SKY/WX    TMP DP  RH WIND       PRES   REMARKS
CHICAGO-OHARE  PTCLDY    66  52  60 N16G24    30.08R
DUPAGE         CLEAR     63  56  78 NE10      30.08R
CHICAGO-MIDWAY PTCLDY    67  58  72 N18G25    30.07R
MOLINE         CLEAR     71  64  78 N6        30.08R
ROCKFORD       PTCLDY    65  58  78 NE10      30.13R
STERLING       CLEAR     68  63  83 E9        30.10R
PEORIA         PTCLDY    76  68  76 NE6       30.04R
$$

NOTE: "FAIR" INDICATES FEW OR NO CLOUDS BELOW 12,000 FEET WITH NO
SIGNIFICANT WEATHER AND/OR OBSTRUCTIONS TO VISIBILITY. WIND
SPEEDS ARE IN MILES-PER-HOUR.



USA.gov is the U.S. government's official web portal to all federal, state and local government web resources and services.